UAL444 KSFO-KSAN

Flight info

Callsign UAL444
Flight time 1h 6m
Altitude 35000
Route WESLA5 YYUNG LAX COMIX2
Aircraft B39M/M-SDE2E3FGHIRWXY/LB1

Departure

Time 2026-04-26 16:55
Airport San Francisco International Airport (KSFO)

Arrival

Time 2026-04-26 18:02
Airport San Diego International Airport (KSAN)
Time Latitude Longitude Altitude Speed Heading
2026-04-26 16:45 37.61589 -122.38206 30 ft 0 kts 122°
2026-04-26 16:47 37.61589 -122.38205 30 ft 1 kts 122°
2026-04-26 16:47 37.61566 -122.38158 30 ft 11 kts 122°
2026-04-26 16:48 37.61507 -122.38077 30 ft 12 kts 171°
2026-04-26 16:48 37.61418 -122.38112 30 ft 11 kts 180°
2026-04-26 16:48 37.61366 -122.38074 30 ft 7 kts 184°
2026-04-26 16:48 37.61310 -122.38106 30 ft 10 kts 208°
2026-04-26 16:49 37.61240 -122.38154 30 ft 12 kts 209°
2026-04-26 16:49 37.61152 -122.38217 30 ft 15 kts 211°
2026-04-26 16:49 37.61047 -122.38287 30 ft 18 kts 208°
2026-04-26 16:49 37.60932 -122.38380 30 ft 20 kts 224°
2026-04-26 16:50 37.60806 -122.38469 30 ft 20 kts 187°
2026-04-26 16:50 37.60671 -122.38385 29 ft 23 kts 148°
2026-04-26 16:50 37.60532 -122.38253 27 ft 25 kts 124°
2026-04-26 16:50 37.60550 -122.38059 24 ft 23 kts 28°
2026-04-26 16:51 37.60662 -122.37909 21 ft 25 kts 42°
2026-04-26 16:51 37.60822 -122.37785 20 ft 27 kts 28°
2026-04-26 16:51 37.61009 -122.37668 17 ft 30 kts 27°
2026-04-26 16:51 37.61205 -122.37534 17 ft 32 kts 30°
2026-04-26 16:52 37.61421 -122.37392 15 ft 35 kts 26°
2026-04-26 16:52 37.61546 -122.37259 12 ft 35 kts 67°
2026-04-26 16:52 37.61451 -122.36877 11 ft 35 kts 119°
2026-04-26 16:52 37.61326 -122.36684 10 ft 27 kts 120°
2026-04-26 16:53 37.61227 -122.36455 8 ft 30 kts 118°
2026-04-26 16:53 37.61121 -122.36205 7 ft 33 kts 118°
2026-04-26 16:53 37.61050 -122.35994 7 ft 18 kts 86°
2026-04-26 16:53 37.61133 -122.35881 7 ft 13 kts 28°
2026-04-26 16:54 37.61188 -122.35869 7 ft 4 kts 301°
2026-04-26 16:54 37.61213 -122.35931 7 ft 13 kts 298°
2026-04-26 16:54 37.61362 -122.36284 10 ft 79 kts 298°
2026-04-26 16:54 37.61734 -122.37171 14 ft 141 kts 298°
2026-04-26 16:55 37.62265 -122.38443 165 ft 178 kts 297°
2026-04-26 16:55 37.62842 -122.39841 887 ft 179 kts 296°
2026-04-26 16:55 37.63433 -122.41278 1473 ft 191 kts 297°
2026-04-26 16:55 37.64091 -122.42848 1846 ft 210 kts 289°
2026-04-26 16:56 37.63048 -122.46313 2739 ft 244 kts 210°
2026-04-26 16:56 37.61364 -122.46908 3455 ft 252 kts 188°
2026-04-26 16:56 37.59564 -122.47063 4230 ft 258 kts 185°
2026-04-26 16:57 37.57746 -122.47141 5001 ft 262 kts 184°
2026-04-26 16:57 37.55891 -122.47209 5760 ft 266 kts 184°
2026-04-26 16:57 37.52100 -122.47347 7243 ft 273 kts 184°
2026-04-26 16:58 37.50171 -122.47416 7967 ft 276 kts 184°
2026-04-26 16:58 37.48856 -122.47467 8447 ft 278 kts 185°
2026-04-26 16:58 37.44269 -122.48238 10015 ft 286 kts 191°
2026-04-26 16:59 37.42219 -122.48641 10261 ft 306 kts 191°
2026-04-26 16:59 37.37744 -122.49498 11259 ft 325 kts 191°
2026-04-26 17:00 37.33135 -122.50365 12603 ft 333 kts 192°
2026-04-26 17:00 37.28391 -122.51252 14037 ft 341 kts 192°
2026-04-26 17:00 37.26008 -122.51697 14761 ft 344 kts 192°
2026-04-26 17:01 37.23563 -122.52152 15512 ft 348 kts 192°
2026-04-26 17:01 37.21128 -122.52605 16228 ft 352 kts 192°
2026-04-26 17:01 37.18658 -122.53064 16944 ft 355 kts 192°
2026-04-26 17:01 37.16136 -122.53532 17620 ft 359 kts 192°
2026-04-26 17:02 37.13611 -122.54000 18289 ft 363 kts 192°
2026-04-26 17:02 37.11057 -122.54474 18930 ft 367 kts 193°
2026-04-26 17:02 37.08439 -122.54958 19560 ft 371 kts 192°
2026-04-26 17:02 37.05835 -122.55437 20164 ft 376 kts 191°
2026-04-26 17:03 37.03153 -122.55572 20751 ft 384 kts 180°
2026-04-26 17:03 37.00431 -122.55042 21329 ft 392 kts 169°
2026-04-26 17:03 36.97741 -122.53937 21887 ft 399 kts 160°
2026-04-26 17:03 36.95189 -122.52366 22440 ft 405 kts 153°
2026-04-26 17:04 36.92716 -122.50590 22988 ft 408 kts 152°
2026-04-26 17:04 36.90199 -122.48743 23519 ft 412 kts 152°
2026-04-26 17:04 36.87646 -122.46867 24008 ft 416 kts 152°
2026-04-26 17:04 36.85104 -122.45000 24531 ft 419 kts 152°
2026-04-26 17:05 36.82523 -122.43105 25043 ft 422 kts 152°
2026-04-26 17:05 36.79915 -122.41193 25536 ft 425 kts 152°
2026-04-26 17:05 36.77296 -122.39273 26022 ft 428 kts 152°
2026-04-26 17:05 36.74680 -122.37358 26495 ft 431 kts 152°
2026-04-26 17:06 36.72046 -122.35431 26955 ft 434 kts 152°
2026-04-26 17:06 36.69398 -122.33495 27403 ft 436 kts 152°
2026-04-26 17:06 36.66727 -122.31545 27849 ft 439 kts 152°
2026-04-26 17:06 36.64030 -122.29577 28282 ft 441 kts 152°
2026-04-26 17:07 36.61326 -122.27605 28706 ft 444 kts 152°
2026-04-26 17:07 36.58571 -122.25598 29127 ft 446 kts 152°
2026-04-26 17:07 36.55823 -122.23598 29531 ft 449 kts 152°
2026-04-26 17:07 36.53093 -122.21613 29926 ft 451 kts 152°
2026-04-26 17:08 36.50298 -122.19582 30335 ft 453 kts 152°
2026-04-26 17:08 36.47510 -122.17558 30712 ft 456 kts 152°
2026-04-26 17:08 36.44716 -122.15531 31115 ft 457 kts 152°
2026-04-26 17:08 36.41912 -122.13499 31612 ft 456 kts 152°
2026-04-26 17:09 36.39158 -122.11504 32095 ft 455 kts 152°
2026-04-26 17:09 36.37295 -122.10156 32404 ft 455 kts 153°
2026-04-26 17:09 36.33577 -122.07466 33032 ft 453 kts 153°
2026-04-26 17:09 36.30807 -122.05464 33494 ft 451 kts 153°
2026-04-26 17:10 36.28050 -122.03474 33908 ft 451 kts 153°
2026-04-26 17:10 36.25304 -122.01493 34334 ft 449 kts 153°
2026-04-26 17:10 36.22546 -121.99506 34745 ft 448 kts 153°
2026-04-26 17:10 36.19781 -121.97516 34990 ft 452 kts 153°
2026-04-26 17:11 36.14175 -121.93489 35000 ft 462 kts 153°
2026-04-26 17:11 36.08511 -121.89423 35000 ft 460 kts 153°
2026-04-26 17:12 36.00214 -121.82865 35007 ft 465 kts 141°
2026-04-26 17:13 35.95755 -121.76833 35009 ft 470 kts 130°
2026-04-26 17:13 35.93726 -121.73502 35011 ft 471 kts 129°
2026-04-26 17:14 35.87604 -121.63693 35021 ft 470 kts 130°
2026-04-26 17:14 35.81472 -121.53951 35030 ft 470 kts 130°
2026-04-26 17:15 35.75331 -121.44228 35032 ft 471 kts 130°
2026-04-26 17:16 35.71230 -121.37751 35031 ft 471 kts 130°
2026-04-26 17:16 35.67119 -121.31270 35024 ft 471 kts 131°
2026-04-26 17:17 35.62995 -121.24777 35025 ft 471 kts 131°
2026-04-26 17:17 35.58896 -121.18337 35025 ft 471 kts 131°
2026-04-26 17:18 35.54784 -121.11890 35030 ft 471 kts 131°
2026-04-26 17:18 35.50676 -121.05430 35035 ft 473 kts 130°
2026-04-26 17:19 35.44817 -120.95338 35034 ft 474 kts 129°
2026-04-26 17:19 35.40953 -120.88654 35029 ft 475 kts 129°
2026-04-26 17:20 35.37694 -120.83037 35023 ft 474 kts 129°
2026-04-26 17:20 35.33138 -120.75206 35020 ft 475 kts 129°
2026-04-26 17:21 35.29230 -120.68509 35020 ft 474 kts 129°
2026-04-26 17:21 35.25323 -120.61827 35020 ft 475 kts 129°
2026-04-26 17:22 35.21399 -120.55132 35021 ft 475 kts 129°
2026-04-26 17:22 35.17453 -120.48413 35022 ft 475 kts 129°
2026-04-26 17:23 35.13528 -120.41744 35023 ft 475 kts 129°
2026-04-26 17:23 35.09582 -120.35052 35024 ft 476 kts 129°
2026-04-26 17:24 35.05611 -120.28326 35014 ft 475 kts 130°
2026-04-26 17:24 35.01665 -120.21652 35014 ft 477 kts 130°
2026-04-26 17:25 34.97695 -120.14953 35009 ft 476 kts 130°
2026-04-26 17:25 34.93727 -120.08269 35006 ft 477 kts 130°
2026-04-26 17:26 34.89737 -120.01561 35001 ft 478 kts 131°
2026-04-26 17:26 34.85730 -119.94841 35002 ft 480 kts 131°
2026-04-26 17:27 34.81708 -119.88107 35001 ft 480 kts 131°
2026-04-26 17:27 34.77741 -119.81477 35003 ft 481 kts 131°
2026-04-26 17:28 34.73730 -119.74789 35003 ft 481 kts 132°
2026-04-26 17:28 34.69754 -119.68173 35004 ft 481 kts 132°
2026-04-26 17:29 34.66422 -119.62635 35005 ft 480 kts 132°
2026-04-26 17:29 34.61768 -119.54918 35006 ft 482 kts 132°
2026-04-26 17:30 34.57734 -119.48242 35006 ft 481 kts 132°
2026-04-26 17:30 34.53744 -119.41653 35007 ft 481 kts 132°
2026-04-26 17:31 34.49735 -119.35043 35008 ft 482 kts 132°
2026-04-26 17:31 34.45714 -119.28419 34995 ft 481 kts 133°
2026-04-26 17:32 34.41690 -119.21803 34996 ft 482 kts 133°
2026-04-26 17:32 34.37664 -119.15196 34997 ft 483 kts 133°
2026-04-26 17:33 34.33647 -119.08614 34996 ft 481 kts 133°
2026-04-26 17:34 34.27575 -118.98694 34998 ft 483 kts 133°
2026-04-26 17:34 34.23521 -118.92086 34995 ft 484 kts 134°
2026-04-26 17:35 34.19461 -118.85481 34999 ft 484 kts 134°
2026-04-26 17:35 34.15382 -118.78858 35005 ft 485 kts 134°
2026-04-26 17:36 34.11270 -118.72195 35014 ft 484 kts 134°
2026-04-26 17:36 34.07164 -118.65556 35021 ft 486 kts 134°
2026-04-26 17:37 34.03037 -118.58897 35022 ft 487 kts 134°
2026-04-26 17:37 33.98892 -118.52219 35021 ft 488 kts 135°
2026-04-26 17:38 33.92648 -118.42339 35024 ft 477 kts 140°
2026-04-26 17:38 33.88113 -118.36372 35032 ft 475 kts 142°
2026-04-26 17:39 33.83496 -118.30416 35015 ft 473 kts 143°
2026-04-26 17:39 33.78910 -118.24504 34974 ft 475 kts 143°
2026-04-26 17:40 33.76593 -118.21509 34430 ft 478 kts 142°
2026-04-26 17:40 33.75066 -118.19510 33750 ft 483 kts 142°
2026-04-26 17:40 33.71949 -118.15419 32336 ft 490 kts 141°
2026-04-26 17:40 33.69615 -118.12357 31302 ft 494 kts 141°
2026-04-26 17:41 33.67229 -118.09227 30353 ft 494 kts 140°
2026-04-26 17:41 33.64888 -118.06153 29617 ft 490 kts 140°
2026-04-26 17:41 33.62539 -118.03072 28854 ft 485 kts 140°
2026-04-26 17:41 33.60235 -118.00053 28100 ft 481 kts 139°
2026-04-26 17:42 33.57915 -117.97015 27321 ft 477 kts 139°
2026-04-26 17:42 33.55622 -117.94017 26548 ft 473 kts 139°
2026-04-26 17:42 33.53319 -117.91109 25839 ft 466 kts 141°
2026-04-26 17:42 33.50939 -117.88354 25082 ft 460 kts 143°
2026-04-26 17:43 33.48590 -117.85676 24343 ft 456 kts 142°
2026-04-26 17:43 33.46266 -117.83013 23605 ft 452 kts 142°
2026-04-26 17:43 33.43957 -117.80357 22903 ft 447 kts 142°
2026-04-26 17:43 33.41653 -117.77839 22202 ft 441 kts 144°
2026-04-26 17:44 33.39357 -117.75408 21502 ft 437 kts 144°
2026-04-26 17:44 33.37075 -117.72996 20799 ft 433 kts 144°
2026-04-26 17:44 33.34807 -117.70589 20126 ft 429 kts 144°
2026-04-26 17:44 33.32533 -117.68173 19447 ft 424 kts 144°
2026-04-26 17:45 33.30316 -117.65816 18784 ft 420 kts 144°
2026-04-26 17:45 33.28115 -117.63476 18125 ft 416 kts 143°
2026-04-26 17:45 33.25949 -117.61174 17480 ft 412 kts 143°
2026-04-26 17:45 33.23790 -117.58887 16853 ft 408 kts 143°
2026-04-26 17:46 33.21631 -117.56615 16204 ft 404 kts 143°
2026-04-26 17:46 33.19497 -117.54372 15579 ft 400 kts 143°
2026-04-26 17:46 33.17430 -117.52201 14985 ft 396 kts 143°
2026-04-26 17:46 33.15330 -117.49996 14404 ft 392 kts 143°
2026-04-26 17:47 33.13269 -117.47839 13778 ft 389 kts 144°
2026-04-26 17:47 33.11825 -117.46497 13342 ft 385 kts 149°
2026-04-26 17:47 33.08854 -117.44113 12555 ft 380 kts 150°
2026-04-26 17:47 33.06648 -117.42342 11974 ft 377 kts 149°
2026-04-26 17:48 33.04485 -117.40569 11413 ft 374 kts 149°
2026-04-26 17:48 33.02326 -117.38774 10819 ft 371 kts 148°
2026-04-26 17:48 33.00220 -117.37014 10591 ft 357 kts 148°
2026-04-26 17:48 32.98202 -117.35326 10393 ft 345 kts 148°
2026-04-26 17:49 32.96260 -117.33700 10170 ft 329 kts 149°
2026-04-26 17:49 32.94408 -117.32147 9962 ft 312 kts 149°
2026-04-26 17:49 32.92651 -117.30675 9714 ft 300 kts 149°
2026-04-26 17:49 32.90949 -117.29254 9458 ft 289 kts 149°
2026-04-26 17:50 32.89309 -117.27892 9158 ft 282 kts 149°
2026-04-26 17:50 32.87704 -117.26559 8870 ft 275 kts 149°
2026-04-26 17:50 32.86124 -117.25249 8590 ft 269 kts 149°
2026-04-26 17:50 32.84602 -117.23987 8318 ft 263 kts 149°
2026-04-26 17:51 32.83085 -117.22729 8051 ft 257 kts 149°
2026-04-26 17:51 32.81753 -117.21272 7799 ft 266 kts 131°
2026-04-26 17:51 32.80749 -117.19328 7530 ft 280 kts 115°
2026-04-26 17:51 32.80118 -117.17105 7250 ft 280 kts 107°
2026-04-26 17:52 32.79635 -117.14815 6983 ft 280 kts 104°
2026-04-26 17:52 32.79162 -117.12546 6707 ft 279 kts 105°
2026-04-26 17:52 32.78669 -117.10292 6430 ft 274 kts 106°
2026-04-26 17:52 32.78193 -117.08133 6174 ft 267 kts 106°
2026-04-26 17:53 32.77672 -117.06015 5985 ft 258 kts 112°
2026-04-26 17:53 32.76977 -117.04070 5975 ft 248 kts 116°
2026-04-26 17:53 32.76250 -117.02190 5979 ft 248 kts 117°
2026-04-26 17:54 32.74784 -116.98408 5946 ft 248 kts 114°
2026-04-26 17:54 32.74199 -116.96413 5508 ft 255 kts 108°
2026-04-26 17:54 32.73680 -116.94351 4970 ft 263 kts 108°
2026-04-26 17:54 32.73161 -116.92248 4714 ft 257 kts 108°
2026-04-26 17:55 32.72614 -116.90241 4675 ft 241 kts 118°
2026-04-26 17:55 32.71635 -116.88711 4673 ft 220 kts 146°
2026-04-26 17:55 32.70267 -116.87914 4722 ft 222 kts 173°
2026-04-26 17:55 32.68705 -116.87923 4701 ft 221 kts 199°
2026-04-26 17:56 32.67363 -116.88678 4599 ft 205 kts 224°
2026-04-26 17:56 32.66355 -116.91693 4311 ft 208 kts 276°
2026-04-26 17:57 32.67327 -116.94875 3895 ft 194 kts 292°
2026-04-26 17:57 32.67800 -116.96381 3655 ft 189 kts 285°
2026-04-26 17:57 32.68188 -116.97881 3459 ft 187 kts 285°
2026-04-26 17:57 32.68565 -116.99383 3272 ft 188 kts 285°
2026-04-26 17:58 32.69672 -117.03862 2707 ft 172 kts 285°
2026-04-26 17:59 32.70289 -117.06378 2313 ft 147 kts 285°
2026-04-26 17:59 32.70576 -117.07555 2107 ft 147 kts 285°
2026-04-26 17:59 32.70865 -117.08741 1982 ft 144 kts 285°
2026-04-26 17:59 32.71154 -117.09930 1686 ft 151 kts 285°
2026-04-26 18:00 32.71432 -117.11114 1324 ft 144 kts 287°
2026-04-26 18:00 32.71703 -117.12277 1051 ft 142 kts 287°
2026-04-26 18:00 32.71981 -117.13438 834 ft 145 kts 287°
2026-04-26 18:00 32.72259 -117.14600 621 ft 146 kts 288°
2026-04-26 18:01 32.72561 -117.15790 386 ft 144 kts 289°
2026-04-26 18:01 32.72858 -117.16922 256 ft 140 kts 288°
2026-04-26 18:01 32.73136 -117.18060 65 ft 142 kts 287°
2026-04-26 18:01 32.73389 -117.19106 25 ft 96 kts 286°
2026-04-26 18:02 32.73498 -117.19556 24 ft 46 kts 287°
2026-04-26 18:02 32.73530 -117.19759 24 ft 26 kts 261°
2026-04-26 18:02 32.73490 -117.19908 24 ft 1 kts 249°
2026-04-26 18:02 32.73485 -117.19930 24 ft 2 kts 273°
2026-04-26 18:03 32.73494 -117.19967 24 ft 6 kts 288°
2026-04-26 18:03 32.73511 -117.20028 24 ft 8 kts 288°
2026-04-26 18:03 32.73518 -117.20057 24 ft 1 kts 286°
2026-04-26 18:03 32.73525 -117.20084 24 ft 4 kts 286°
2026-04-26 18:04 32.73538 -117.20136 24 ft 7 kts 287°
2026-04-26 18:04 32.73549 -117.20206 24 ft 7 kts 249°
2026-04-26 18:04 32.73503 -117.20242 24 ft 8 kts 198°
2026-04-26 18:05 32.73421 -117.20319 24 ft 1 kts 268°
2026-04-26 18:05 32.73420 -117.20335 24 ft 0 kts 267°
2026-04-26 18:05 32.73420 -117.20338 24 ft 0 kts 267°